Home   Weather   Bilbao   Past weeks
Flag for Spain

Past Weather in Bilbao, Basque Country, Spain — Yesterday and Last 2 Weeks

Now
50 °F

Drizzle. Partly sunny.


Feels Like: 49 °F
Forecast: 50 / 45 °F
Wind: 3 mph from East

Location: Bilbao / Sondica

Current Time: Feb 25, 2020 at 10:56:19 am

Latest Report: Feb 25, 2020 at 10:16 am


Visibility: 4 mi

Pressure: 30.12 "Hg

Humidity: 94%

Dew Point: 48 °F

Location of BilbaoLocation

Past Weather in Bilbao — Graph

°F

Bilbao Temperature Yesterday

Maximum temperature yesterday: 59 °F (at 11:30 am)
Minimum temperature yesterday: 41 °F (at 9:21 am)
Average temperature yesterday: 50 °F

High & Low Weather Summary for the Past Weeks

 TemperatureHumidityPressure
High72 °F (Feb 16, 1:30 pm)100% (Feb 11, 5:30 pm)30.60 "Hg (Feb 11, 5:30 pm)
Low37 °F (Feb 19, 5:30 am)35% (Feb 16, 12:30 pm)30.04 "Hg (Feb 13, 4:00 am)
Average53 °F80%30.34 "Hg
* Reported Feb 10 9:00 am — Feb 25 9:30 am, Bilbao. Weather by CustomWeather, © 2020

Note: Actual official high and low records may vary slightly from our data, if they occured in-between our weather recording intervals... More about our weather records

Bilbao Weather History for the Previous 24 Hours

Scroll right to see more
 ConditionsComfort  
Time TempWeatherWind HumidityBarometerVisibility
9:30 am
Tue, Feb 25
50 °FPartly sunny.3 mph94%30.12 "HgN/A
9:00 am50 °FPartly sunny.2 mph94%30.12 "HgN/A
8:30 am50 °FPartly sunny.3 mph94%30.12 "HgN/A
8:00 am50 °FPartly sunny.3 mph94%30.12 "Hg6 mi
7:30 am50 °FPassing clouds.3 mph94%30.12 "HgN/A
7:00 am50 °FPassing clouds.5 mph94%30.12 "Hg6 mi
6:30 am50 °FLight rain. Passing clouds.6 mph88%30.12 "Hg5 mi
6:00 am50 °FPassing clouds.3 mph88%30.15 "HgN/A
5:30 am50 °FPassing clouds.3 mph88%30.15 "HgN/A
5:00 am50 °FPassing clouds.5 mph88%30.15 "HgN/A
4:30 am52 °FPassing clouds.2 mph82%30.15 "HgN/A
4:00 am52 °FPassing clouds.3 mph82%30.15 "HgN/A
3:30 am50 °FPassing clouds.3 mph88%30.15 "HgN/A
3:00 am52 °FPartly cloudy.2 mph82%30.18 "HgN/A
2:30 am50 °FPassing clouds.1 mph88%30.18 "HgN/A
2:00 am50 °FPassing clouds.2 mph88%30.18 "HgN/A
1:30 am50 °FPassing clouds.3 mph88%30.21 "HgN/A
1:00 am52 °FPassing clouds.3 mph82%30.21 "HgN/A
12:30 am52 °FPassing clouds.3 mph82%30.18 "HgN/A
12:00 am50 °FPassing clouds.5 mph88%30.21 "HgN/A
11:30 pm
Mon, Feb 24
52 °FPassing clouds.2 mph82%30.21 "HgN/A
11:00 pm52 °FPassing clouds.3 mph82%30.21 "HgN/A
10:30 pm52 °FPassing clouds.2 mph82%30.24 "HgN/A
10:00 pm52 °FPassing clouds.3 mph82%30.24 "HgN/A
9:30 pm52 °FPassing clouds.7 mph82%30.27 "Hg6 mi
9:00 pm52 °FPassing clouds.7 mph88%30.27 "Hg5 mi
8:30 pm52 °FPassing clouds.6 mph88%30.27 "Hg5 mi
8:00 pm52 °FFog.5 mph88%30.27 "Hg3 mi
7:30 pm50 °FFog.7 mph94%30.27 "Hg3 mi
7:00 pm50 °FFog.5 mph88%30.24 "Hg3 mi
6:30 pm52 °FFog.7 mph88%30.21 "Hg3 mi
6:00 pm55 °FClear.5 mph77%30.21 "Hg4 mi
5:30 pm55 °FPassing clouds.1 mph77%30.21 "Hg4 mi
5:00 pm57 °FPassing clouds.1 mph72%30.24 "Hg4 mi
4:30 pm55 °FPassing clouds.2 mph77%30.24 "Hg4 mi
4:00 pm54 °FScattered clouds.3 mph77%30.27 "Hg4 mi
3:30 pm52 °FPartly sunny.7 mph82%30.27 "Hg4 mi
3:00 pm52 °FScattered clouds.8 mph88%30.30 "Hg4 mi
2:30 pm52 °FScattered clouds.12 mph82%30.30 "Hg4 mi
2:00 pm54 °FSunny.13 mph77%30.30 "Hg10 mi
1:30 pm54 °FSunny.17 mph82%30.30 "Hg10 mi
1:00 pm57 °FPassing clouds.9 mph72%30.30 "HgN/A
12:30 pm57 °FPassing clouds.7 mph67%30.30 "HgN/A
12:00 pm59 °FSunny.6 mph59%30.30 "Hg10 mi
11:30 am59 °FPassing clouds.3 mph55%30.30 "HgN/A
11:00 am54 °FPassing clouds.7 mph72%30.30 "HgN/A
10:30 am48 °FPassing clouds.5 mph82%30.33 "HgN/A
10:00 am45 °FPassing clouds.5 mph93%30.33 "HgN/A
Weather by CustomWeather, © 2020

See weather overview

Advertising